Regional Weather Roundup
Issued by NWS Raleigh/Durham, NC

Home | Current Version | Previous Version | Text Only | Print | Product List | Glossary On
Versions: 1 2 3 4 5 6 7 8 9 10 11 12 13 14 15 16 17 18 19 20 21 22 23 24 25 26 27 28 29 30 31 32 33 34 35 36 37 38 39 40 41 42 43 44 45 46 47 48 49 50
000
ASUS42 KRAH 221010
RWRRAH
NORTH CAROLINA WEATHER ROUNDUP
NATIONAL WEATHER SERVICE RALEIGH NC
600 AM EDT TUE JUL 22 2014

NOTE: "FAIR" INDICATES FEW OR NO CLOUDS BELOW 12,000 FEET WITH NO
SIGNIFICANT WEATHER AND/OR OBSTRUCTIONS TO VISIBILITY.

NCZ001-053-055-056-065-067-221100-
WESTERN NORTH CAROLINA

CITY           SKY/WX    TMP DP  RH WIND       PRES   REMARKS
ASHEVILLE      MOCLDY    66  65  96 CALM      30.19R
JEFFERSON      CLOUDY    65  64  96 CALM      30.25R FOG
MORGANTON      LGT RAIN  69  69 100 CALM      30.21R
HICKORY        CLOUDY    71  69  93 E3        30.16R
RUTHERFORDTON  CLOUDY    69  68  99 S8        30.16R
MOUNT AIRY     CLOUDY    72  69  90 CALM      30.17R
BOONE          CLOUDY    64  64 100 E3        30.25R
$$

NCZ021-022-025-041-071-084-088-221100-
CENTRAL NORTH CAROLINA

CITY           SKY/WX    TMP DP  RH WIND       PRES   REMARKS
CHARLOTTE      LGT RAIN  72  69  90 CALM      30.14R
GREENSBORO     FOG       69  69 100 NE3       30.15S VSB 1/2
WINSTON-SALEM  MOCLDY    70  68  93 N3        30.17R
RALEIGH-DURHAM CLOUDY    72  69  90 E6        30.14S FOG
FORT BRAGG     FOG       73  73  99 NE5       30.11R VSB 1
FAYETTEVILLE   FOG       73  72  96 NE5       30.10S VSB 3/4
BURLINGTON     CLOUDY    71  68  90 NE3       30.15S FOG
LAURINBURG     FOG       72  72 100 E6        30.11S VSB 1/2
$$

NCZ011-015-027-028-043-044-047-080-103-221100-
NORTHEASTERN NORTH CAROLINA

CITY           SKY/WX    TMP DP  RH WIND       PRES   REMARKS
ROCKY MT-WILSO MOCLDY    72  70  93 NE5       30.13F
GREENVILLE     CLOUDY    72  72 100 CALM      30.14R
WASHINGTON     MOCLDY    72  70  96 NE3       30.13R
ELIZABETH CITY MOCLDY    74  71  91 NE8       30.14R
MANTEO         NOT AVBL
CAPE HATTERAS  LGT RAIN  74  74 100 CALM      30.12F FOG
$$

NCZ078-087-090-091-093-098-101-221100-
SOUTHEASTERN NORTH CAROLINA

CITY           SKY/WX    TMP DP  RH WIND       PRES   REMARKS
LUMBERTON      FOG       73  72  96 NE3       30.10R VSB 1/2
GOLDSBORO      CLOUDY    72  72  99 NE5       30.10S
KINSTON        CLOUDY    73  71  96 N6        30.12S
KENANSVILLE    CLOUDY    73  71  95 CALM      30.12S FOG
NEW BERN       MOCLDY    76  73  91 E3        30.11S
CHERRY POINT   CLOUDY    73  71  93 CALM      30.11S
BEAUFORT       PTCLDY    74  73  97 CALM      30.10S FOG
JACKSONVILLE   CLOUDY    74  73  97 N6        30.09F
WILMINGTON     RAIN      74  73  97 NE5       30.09R FOG
$$



USA.gov is the U.S. government's official web portal to all federal, state and local government web resources and services.